This is the latest recevied weather packets stored in our database for station/object DG1ROH. If no packets are shown the sender has not sent any weather packets the latest 1 day(s).
| Time | Temp. | Humidity | Pressure | Rain* | Wind** | Luminosity | Snow |
|---|---|---|---|---|---|---|---|
| 1778093904 | 10° C | 90% | 1007.4 hPa | 0 mm | - | 0 W/m² | - |
| 1778093783 | 10° C | 90% | 1007.5 hPa | 0 mm | - | 0 W/m² | - |
| 1778092936 | 10° C | 90% | 1007.6 hPa | 0 mm | - | 0 W/m² | - |
| 1778092816 | 10° C | 90% | 1007.5 hPa | 0 mm | - | 0 W/m² | - |
| 1778092086 | 10.56° C | 89% | 1007.3 hPa | 0 mm | - | 9 W/m² | - |
| 1778091846 | 10.56° C | 89% | 1007.3 hPa | 0 mm | - | 12 W/m² | - |
| 1778091485 | 10.56° C | 89% | 1007.2 hPa | 0 mm | - | 18 W/m² | - |
| 1778091007 | 10.56° C | 90% | 1007.2 hPa | 0 mm | - | 26 W/m² | - |
| 1778090765 | 10.56° C | 89% | 1007.1 hPa | 0 mm | - | 30 W/m² | - |
| 1778089325 | 10.56° C | 90% | 1007 hPa | 0 mm | - | 30 W/m² | - |
| 1778089205 | 10.56° C | 90% | 1007.1 hPa | 0 mm | - | 25 W/m² | - |
| 1778089085 | 10.56° C | 90% | 1007.1 hPa | 0 mm | - | 25 W/m² | - |
| 1778088846 | 10.56° C | 90% | 1007 hPa | 0 mm | - | 26 W/m² | - |
| 1778088725 | 10.56° C | 90% | 1007 hPa | 0 mm | - | 30 W/m² | - |
| 1778088123 | 10.56° C | 90% | 1007 hPa | 0 mm | - | 26 W/m² | - |
| 1778087642 | 10.56° C | 90% | 1007 hPa | 0 mm | - | 58 W/m² | - |
| 1778086922 | 10.56° C | 90% | 1006.8 hPa | 0 mm | - | 37 W/m² | - |
| 1778086682 | 10.56° C | 90% | 1006.8 hPa | 0 mm | - | 28 W/m² | - |
| 1778086439 | 10.56° C | 90% | 1007 hPa | 0 mm | - | 49 W/m² | - |
| 1778085959 | 11.11° C | 89% | 1007 hPa | 0 mm | - | 54 W/m² | - |
| 1778085839 | 11.11° C | 89% | 1007 hPa | 0 mm | - | 49 W/m² | - |
| 1778085115 | 11.11° C | 89% | 1006.9 hPa | 0 mm | - | 33 W/m² | - |
| 1778084995 | 11.11° C | 90% | 1006.9 hPa | 0 mm | - | 42 W/m² | - |
| 1778084876 | 11.11° C | 89% | 1006.9 hPa | 0 mm | - | 60 W/m² | - |
| 1778084515 | 11.11° C | 90% | 1006.8 hPa | 0 mm | - | 128 W/m² | - |
* Rain latest hour (hover to see other rain measurements)
** Current wind speed in m/s (hover to see current wind gust speed)